User: anonymous   Login
Location: Unspecified
(0.0000°N, 0.0000°E)
Time: 12:20:31
(UTC+02:00)
Language:

PSLV R/B - Orbit

View from above orbital plane
View from above orbital plane
View from above satellite
View from above satellite

Ground track
Ground track

The orbit data is extracted from the following two-line orbital elements,

1 29713U 07001E   14296.07152221  .00003462  00000-0  42996-3 0  4647
2 29713 097.6561 285.0230 0027079 038.2167 322.0961 14.82964876420442
Epoch (UTC): 23 October 2014 01:42:59
Eccentricity: 0.0027079
inclination: 97.6561°
perigee height: 601 km
apogee height: 639 km
right ascension of ascending node: 285.0230°
argument of perigee: 38.2167°
revolutions per day: 14.82964876
mean anomaly at epoch: 322.0961°
orbit number at epoch: 42044

The dashed part of the orbit path shows where the satellite is in the earth's shadow,  

DLR